Theta_e
346 346 346 346 346 345 345 344 344 344 343 343 342 340 338 340 341 348 350 350 352 352 352 353 353 355 356 356 355 355 355 354 354 353 352 351 351 353 352 352 351 351 351 351 352 350 350 349 349 350 348 345 346 347 346 346 344 342 342 339 339 337 337 334 332 335 337 336 340 341 346 348 349 345 348 351 351 353 355 354 354 355 356 356 357
346 346 346 346 345 346 345 345 345 344 343 343 344 343 341 340 339 343 348 350 352 352 352 353 353 353 355 355 355 355 355 354 354 353 353 351 350 353 352 352 351 351 350 350 351 353 351 349 350 350 348 348 347 347 349 348 346 345 344 345 342 342 340 338 335 333 337 337 339 343 344 348 348 344 346 349 351 353 354 356 357 355 357 357 357
347 347 347 346 346 346 346 346 345 344 343 343 343 344 345 343 341 339 343 348 351 352 352 352 352 352 353 354 355 354 354 354 354 353 353 352 351 352 353 351 351 351 350 351 351 351 350 350 350 350 351 349 349 349 348 348 348 347 346 346 345 344 343 342 338 335 336 339 337 340 341 343 345 349 348 349 349 350 351 354 355 357 357 357 357
347 347 347 347 347 346 346 346 346 345 344 344 343 343 344 345 346 341 340 342 347 351 351 351 351 351 351 352 353 354 354 354 354 354 353 353 353 352 352 352 351 351 351 352 352 352 351 350 350 350 349 348 349 349 348 348 348 347 345 344 345 346 345 344 342 341 338 338 339 342 343 342 344 344 348 351 351 352 350 352 351 353 354 355 355
346 347 347 347 347 346 346 347 346 345 344 344 344 343 343 345 347 345 343 340 342 346 350 350 350 350 350 351 352 353 354 354 354 354 354 354 354 354 353 352 352 351 351 351 357 352 352 351 351 350 349 348 349 349 349 347 349 348 347 346 346 347 346 346 345 343 341 341 341 340 339 340 342 345 345 349 349 347 346 347 351 351 350 353 358
345 346 347 347 347 346 346 346 346 346 345 345 344 344 343 343 345 347 347 344 342 342 345 348 350 349 350 350 352 353 354 354 354 354 354 354 354 354 354 353 353 352 352 351 351 352 353 352 352 352 351 350 350 350 349 349 348 348 347 347 346 344 344 344 345 345 343 344 343 343 340 343 343 343 343 346 347 346 348 349 348 346 351 356 357
345 345 346 347 347 347 347 347 347 347 347 346 346 345 344 343 343 345 348 347 345 343 343 345 348 349 349 350 351 352 353 354 354 354 355 355 354 354 354 354 353 353 353 353 352 352 352 352 352 352 352 352 352 351 350 349 350 349 349 349 347 345 346 346 345 343 343 343 342 342 343 342 344 346 343 342 344 345 343 344 343 342 346 349 354
345 345 346 346 346 347 347 348 348 347 347 347 346 345 345 344 343 343 346 348 348 346 345 344 345 348 348 349 350 352 352 353 354 354 355 355 355 354 354 354 354 353 353 354 354 353 353 352 352 352 352 353 353 353 352 351 350 350 351 350 348 346 346 346 344 343 342 342 342 344 339 340 341 340 341 342 344 342 342 341 343 345 347 346 348
346 346 346 346 346 348 348 348 348 348 348 347 346 346 345 344 344 343 343 345 348 348 348 346 344 345 348 349 349 351 352 353 354 354 354 354 355 354 354 354 354 353 353 353 354 355 355 354 354 353 355 360 359 358 357 357 352 350 351 349 348 347 347 346 345 343 344 343 344 343 341 342 344 343 342 338 339 343 342 346 346 346 344 345 349
348 347 347 347 348 348 349 349 349 348 348 347 346 346 346 345 344 343 342 342 344 347 348 348 346 344 345 348 349 350 351 352 351 343 345 354 354 355 355 354 354 353 353 352 352 353 355 355 357 363 354 354 352 349 344 348 354 355 353 350 349 348 347 346 345 345 344 342 343 343 342 343 344 341 340 339 340 339 342 341 341 342 342 347 348
349 349 348 349 349 350 349 349 349 348 348 347 347 347 346 345 344 343 343 342 342 344 347 346 346 346 345 346 348 350 351 351 341 334 335 340 352 354 354 353 354 354 353 352 352 352 353 354 355 360 364 358 353 346 343 340 341 342 345 353 358 352 348 347 347 346 344 344 345 342 342 343 345 342 342 346 341 342 342 337 342 340 340 342 345
350 350 351 351 351 351 351 350 350 349 348 348 347 347 347 346 345 344 343 342 343 343 344 345 346 346 346 345 346 349 350 344 334 332 333 333 340 355 354 353 353 353 353 353 353 353 352 353 354 355 355 356 357 355 350 344 338 338 338 338 341 346 350 352 350 347 344 345 344 345 343 344 345 341 344 340 343 339 341 340 340 342 342 342 339
352 351 352 352 352 352 352 351 351 350 350 349 349 348 347 346 345 345 344 344 344 343 343 344 345 346 345 344 345 347 349 340 332 330 331 331 332 344 354 353 352 353 353 353 353 352 352 352 352 353 355 362 362 358 355 354 344 336 335 337 339 338 334 334 339 351 350 346 346 346 345 345 344 346 346 341 339 338 335 336 337 340 346 346 344
352 352 353 353 353 353 353 352 351 351 351 351 350 349 348 347 347 346 346 346 344 344 344 343 344 345 345 345 345 346 347 340 331 328 327 328 330 335 352 353 353 353 353 353 353 353 352 352 351 351 352 354 355 355 355 354 353 351 347 346 346 349 344 336 334 335 342 349 348 347 349 348 348 348 349 343 340 340 338 338 337 341 343 346 343
351 352 353 353 354 354 353 353 352 352 352 352 351 350 349 348 348 347 347 346 345 344 344 344 344 345 345 346 345 345 347 335 328 326 324 324 326 331 349 353 353 352 353 353 353 353 353 353 352 351 351 351 351 353 352 352 352 351 350 349 349 349 349 349 348 346 345 346 349 351 352 351 351 352 348 346 345 345 344 343 344 344 345 341 336
345 348 352 354 354 354 354 354 353 353 353 352 351 350 350 349 348 348 348 347 347 347 347 346 345 345 346 346 346 345 347 331 326 324 323 323 325 338 345 349 351 352 352 352 352 353 353 353 352 352 352 351 352 341 349 352 349 349 348 349 348 348 349 351 340 343 351 349 349 351 353 354 346 353 350 346 345 344 346 347 345 342 341 338 339
344 346 349 352 356 356 356 355 354 354 354 353 352 352 351 350 350 350 349 348 347 347 347 347 347 346 346 346 346 346 347 336 324 321 321 321 324 340 344 347 349 350 351 351 352 352 353 353 352 352 352 351 346 334 333 349 349 348 348 347 348 347 348 350 338 330 330 330 331 335 335 334 334 331 329 331 344 344 344 342 346 344 339 340 335
347 348 347 348 353 357 357 356 355 355 354 353 353 353 353 353 352 352 349 348 348 348 348 348 348 348 347 346 346 346 347 339 323 319 319 319 329 341 344 345 347 349 350 351 351 352 353 361 360 352 351 352 338 332 331 340 346 348 347 346 345 345 347 349 350 347 330 326 327 329 330 331 332 331 331 328 327 339 347 344 345 343 343 341 339
343 345 348 351 352 352 357 357 357 356 355 355 355 354 353 353 353 353 352 351 350 349 349 348 348 348 348 348 350 347 347 341 323 319 318 317 327 342 345 345 345 346 348 349 350 351 350 357 361 355 354 347 334 331 328 336 345 347 347 346 345 345 347 348 347 348 345 343 345 343 343 341 342 341 343 336 332 340 347 349 348 345 343 341 338
340 342 345 348 352 353 353 356 357 357 356 356 356 355 355 355 354 353 352 352 350 350 350 349 348 348 348 348 348 348 348 348 340 318 317 315 320 342 345 345 345 345 347 347 348 348 349 350 350 337 332 332 330 326 324 324 343 346 346 345 344 345 348 347 348 349 349 350 349 348 348 349 348 348 347 347 344 344 344 347 349 348 345 344 341
339 342 345 348 350 353 355 356 357 358 358 357 357 357 356 355 354 353 352 352 351 350 349 349 349 348 349 349 348 348 349 348 345 320 316 315 316 328 346 346 347 347 346 347 347 347 348 349 350 340 327 325 324 322 319 318 328 346 347 346 347 348 348 346 349 362 352 350 351 351 351 350 350 349 348 347 347 346 344 343 348 349 348 346 343
337 341 345 348 352 354 355 356 358 358 359 358 357 356 356 356 355 354 353 352 350 350 349 348 348 348 349 349 349 348 350 343 349 327 317 314 314 317 342 348 348 348 347 347 348 348 349 350 351 342 328 324 322 319 317 318 319 338 346 331 331 331 344 348 348 348 352 352 350 349 349 348 348 348 348 348 348 348 348 347 346 348 350 350 348
336 340 344 348 353 356 356 356 357 359 359 359 357 356 356 355 355 354 352 351 350 349 349 349 348 348 348 349 350 350 350 349 334 342 320 314 313 314 323 338 334 349 348 347 348 349 351 351 353 342 327 321 319 317 316 317 320 329 325 324 325 327 338 343 346 346 346 348 348 348 348 348 347 347 348 348 349 349 350 350 350 348 348 349 348
334 337 339 342 345 350 355 358 358 358 358 358 357 356 355 355 354 354 353 351 350 349 349 349 348 347 347 348 349 350 351 350 338 330 332 315 313 312 315 321 329 344 350 350 350 351 351 352 348 332 323 316 315 316 317 318 329 319 317 320 322 330 338 341 342 345 345 344 346 347 348 349 349 349 348 349 350 349 342 342 344 347 345 342 340
330 332 334 337 340 344 348 354 357 357 358 358 357 356 355 355 353 353 353 351 350 349 349 349 348 347 347 347 348 349 351 350 350 337 327 321 314 312 313 316 320 324 344 350 351 352 340 332 330 324 322 317 316 316 316 315 315 317 317 318 332 337 339 342 344 345 345 345 346 347 349 349 351 352 353 351 343 340 340 338 338 336 336 336 335
328 329 331 334 337 340 343 348 354 357 357 358 358 357 356 355 354 353 353 352 351 350 349 348 348 347 347 347 347 349 350 350 350 349 336 329 320 314 314 315 319 321 331 346 338 336 332 327 325 324 323 326 333 334 335 335 320 319 320 325 333 337 339 342 343 344 345 347 347 347 349 348 348 352 346 338 337 337 337 336 335 335 335 334 333
327 328 329 331 334 339 343 349 353 355 355 357 358 358 357 356 355 353 353 352 351 350 349 348 348 347 347 347 348 348 349 349 350 350 347 342 337 329 319 320 318 319 326 337 337 341 339 339 338 330 333 333 334 335 336 337 335 330 329 331 334 336 339 341 343 345 345 347 347 348 348 349 347 344 338 337 336 336 338 337 335 333 332 330 331
326 327 328 330 333 339 345 351 353 354 354 355 356 356 357 357 355 354 353 353 351 350 350 349 348 348 347 347 347 348 348 349 349 349 349 346 343 338 331 330 329 327 329 333 338 344 347 340 336 339 339 338 337 337 338 339 340 338 336 334 335 337 341 347 348 346 347 348 349 348 345 342 342 346 342 337 336 336 338 338 335 332 330 330 329
327 327 329 331 335 341 348 351 352 352 353 354 356 357 356 356 356 356 357 357 355 354 352 351 351 351 350 349 347 347 347 347 349 335 349 332 340 342 336 333 334 333 329 326 339 340 342 344 344 340 340 341 340 340 340 338 338 338 339 337 336 337 339 341 342 344 346 346 346 347 346 345 345 345 342 337 336 336 335 335 334 332 330 331 330
327 328 330 332 335 341 347 347 348 350 351 352 354 356 347 334 346 357 356 342 336 333 333 351 354 353 352 351 351 349 348 350 333 326 323 320 319 322 324 322 321 330 326 319 330 339 340 341 343 344 342 341 342 341 341 340 340 339 338 333 337 339 339 341 342 344 345 345 346 345 346 345 345 343 341 340 337 334 332 330 332 332 330 329 329
326 327 330 331 333 336 340 343 345 348 351 352 353 353 354 350 319 322 335 340 330 321 318 322 326 333 348 352 347 333 333 329 324 318 317 315 314 315 315 314 313 314 316 323 330 335 339 340 341 343 343 343 343 343 342 341 340 340 340 338 338 338 337 341 343 343 343 345 344 346 346 346 346 345 343 340 338 334 332 331 332 331 330 330 329
324 325 326 329 333 336 340 342 345 346 349 351 352 353 353 353 353 326 317 320 322 318 316 315 316 317 322 332 343 349 329 318 316 313 314 313 312 312 312 311 311 310 309 317 334 334 337 339 341 342 343 343 343 343 343 343 341 341 341 339 338 338 339 340 340 344 344 345 345 344 346 346 346 345 343 340 334 333 332 330 330 331 330 329 329
323 324 325 328 331 335 340 342 343 344 346 349 351 352 353 352 352 352 345 318 312 310 310 313 313 313 313 314 316 323 326 322 314 310 311 312 310 310 310 309 309 307 309 324 336 337 337 338 340 342 343 343 344 345 344 344 343 342 343 342 341 340 340 341 335 342 343 344 345 345 345 345 345 343 338 335 333 333 330 330 330 330 329 328 330
323 324 325 327 329 331 333 338 343 343 344 346 350 352 353 354 354 353 352 349 344 330 319 311 308 308 308 309 312 313 313 315 314 312 309 309 309 308 308 314 305 303 316 334 334 337 339 339 340 341 343 344 345 344 343 343 343 343 343 343 343 342 342 343 341 340 341 342 343 344 344 345 342 340 338 335 334 334 331 330 330 328 327 327 327
321 325 329 329 326 326 327 329 332 339 343 343 344 347 351 352 353 352 352 351 349 349 350 347 321 307 321 316 309 309 311 311 311 311 311 309 308 305 307 323 322 317 317 327 334 337 339 339 340 341 343 343 343 342 341 342 343 342 342 342 341 341 341 341 342 342 342 343 343 343 343 343 341 338 336 334 333 333 332 330 329 328 327 327 327
320 320 320 322 322 322 323 325 327 330 335 341 343 343 346 349 351 352 347 350 351 350 349 352 350 327 309 308 310 307 306 307 308 308 309 308 305 307 330 332 333 331 327 327 331 335 338 340 341 341 342 342 341 341 343 343 343 343 343 342 340 341 341 341 340 341 343 344 343 342 339 341 340 337 336 335 334 334 333 331 329 328 328 328 328
318 318 319 319 320 320 322 323 325 328 331 335 339 341 341 342 341 340 341 343 344 344 346 344 338 337 330 330 323 311 305 303 303 304 304 304 301 320 339 339 338 337 333 332 331 332 335 337 339 341 342 340 340 342 343 343 343 342 336 341 341 341 341 342 343 342 343 343 344 342 341 339 337 335 335 333 333 334 333 331 329 328 328 328 325
317 317 317 317 318 320 320 321 323 325 330 335 339 340 339 338 339 339 339 338 339 340 341 341 336 342 343 344 340 335 326 308 307 308 303 301 305 321 335 341 339 339 338 337 334 333 334 336 339 341 341 341 340 342 342 343 342 341 339 339 340 341 334 339 338 342 343 343 343 342 337 337 336 334 332 335 333 331 330 329 329 328 327 327 326
315 315 315 316 317 318 318 321 324 327 330 335 339 339 338 337 337 337 337 338 338 337 338 340 340 340 342 344 338 331 325 328 329 334 329 320 318 324 330 336 339 340 340 339 336 334 335 335 338 341 340 341 340 341 341 342 341 340 340 340 339 340 339 341 342 342 342 342 341 340 338 337 335 335 333 334 332 330 329 328 328 328 328 326 326
313 313 314 316 316 317 319 322 323 324 328 332 337 339 339 338 338 337 336 337 337 337 337 337 338 339 341 343 337 331 333 337 338 340 338 331 326 326 328 332 336 339 340 339 338 337 336 337 339 340 340 341 341 341 341 341 340 338 338 338 339 339 340 341 341 341 341 340 338 336 336 335 335 333 333 333 332 331 329 327 326 326 327 327 326
312 312 316 314 314 315 317 319 320 320 322 324 329 336 338 337 337 337 337 336 337 337 336 337 339 341 339 334 319 320 338 341 342 340 337 335 333 331 330 332 334 337 339 339 338 337 337 337 339 339 339 340 341 341 340 339 338 337 337 336 337 337 338 339 341 341 340 337 335 334 334 335 334 333 331 331 326 327 328 327 325 325 324 324 324
311 311 312 313 313 314 315 315 316 318 319 321 323 328 334 336 337 336 335 335 336 336 337 338 340 343 330 317 311 308 331 341 341 339 339 337 336 335 334 334 335 337 339 339 338 337 336 335 337 339 338 339 341 341 340 338 336 337 338 337 337 336 336 337 338 339 338 335 334 334 334 334 332 332 332 326 328 327 326 326 326 324 323 322 321
310 311 311 313 312 311 312 312 313 314 315 316 319 322 326 333 336 336 335 335 335 336 337 338 340 336 329 313 314 309 327 337 340 338 337 336 336 333 331 328 325 324 323 323 325 330 331 329 329 332 336 337 340 339 338 338 338 338 338 336 336 336 336 336 335 335 335 334 333 332 333 332 330 330 329 327 326 325 324 324 324 323 322 322 321
308 309 310 310 310 310 311 310 310 312 313 315 316 318 322 327 334 336 336 336 335 336 337 338 337 332 330 318 313 318 331 335 336 335 332 329 327 325 323 321 320 319 318 318 319 320 321 319 318 317 318 320 321 327 336 338 339 338 337 335 332 332 334 333 333 334 334 333 332 331 331 329 328 329 326 326 326 324 323 323 323 322 321 320 319
307 307 308 307 307 307 308 308 309 309 310 310 311 312 316 322 330 336 337 337 337 336 336 335 332 330 328 325 327 330 333 332 328 326 323 321 319 317 315 314 313 313 313 313 314 315 315 314 314 312 310 310 310 311 312 313 317 323 328 331 330 329 331 331 331 332 332 331 329 329 328 328 328 327 326 326 325 324 323 322 321 319 316 315 317
306 306 306 306 305 306 306 306 308 307 307 308 307 308 311 314 319 331 336 337 337 336 334 331 330 329 329 328 327 325 323 322 320 317 315 313 311 309 309 308 308 308 308 308 308 308 309 308 308 307 306 305 305 305 306 307 308 309 311 314 317 317 316 318 323 327 330 330 329 328 327 326 325 325 326 323 322 321 320 318 317 316 315 313 312
304 305 305 305 304 304 305 305 306 306 305 306 306 306 307 309 311 315 322 325 327 329 329 328 326 323 322 320 319 317 316 313 311 309 308 307 306 306 305 305 304 304 304 304 304 304 304 304 304 304 303 303 303 302 302 303 304 305 306 308 310 313 314 317 321 324 325 326 326 326 324 322 322 322 321 318 317 316 316 315 314 312 311 310 309
303 303 303 304 303 302 302 303 303 305 305 305 305 305 306 306 306 308 310 311 314 316 316 315 314 313 313 311 311 310 309 308 307 306 305 304 303 303 303 303 302 301 301 301 301 301 301 300 300 301 301 302 302 301 301 301 301 302 304 305 307 311 313 312 318 319 319 321 322 322 322 320 317 315 315 315 314 313 312 311 311 310 309 309 308
303 302 302 302 302 301 301 301 302 302 302 304 304 304 304 303 304 304 305 306 307 308 309 309 309 309 308 307 307 306 306 305 303 303 302 302 302 302 302 302 301 300 300 299 299 299 300 300 300 299 299 299 298 298 298 298 299 300 301 302 301 299 299 305 310 313 310 316 316 316 316 315 314 313 313 312 311 311 310 310 310 310 309 309 309
302 302 301 301 301 300 301 301 301 300 302 301 301 302 303 302 302 302 303 303 304 304 304 305 306 306 305 305 304 303 303 302 301 300 300 300 300 300 299 298 298 297 298 298 298 298 299 299 299 299 299 299 299 299 299 299 298 298 298 298 296 295 295 297 300 304 311 313 313 313 313 312 312 311 311 311 311 310 310 310 310 310 310 310 309
301 301 300 300 300 300 300 299 298 299 299 300 300 300 301 301 301 301 301 301 301 301 302 301 302 303 302 302 302 301 300 299 299 298 298 298 298 298 298 297 296 296 296 296 296 296 296 297 297 298 298 298 298 297 297 296 296 295 295 294 292 292 294 298 302 297 301 306 313 313 313 312 310 310 309 309 310 310 310 310 309 309 309 309 309
Wind_Speed
16 15 13 14 13 13 13 11 11 9 8 8 8 8 7 7 8 8 4 6 6 6 7 7 7 7 7 7 7 6 6 6 5 5 5 5 5 5 5 5 5 5 4 4 3 3 4 4 4 4 2 2 3 3 3 3 2 3 3 3 3 3 3 3 3 6 5 3 3 4 3 2 4 1 4 5 6 6 6 4 4 4 5 5 5
15 15 13 13 15 14 14 12 11 10 10 9 9 9 7 7 7 5 7 8 7 8 8 7 7 7 7 7 7 7 7 6 6 5 6 5 5 4 5 6 6 5 4 5 5 4 4 4 5 4 3 3 3 4 4 3 3 3 3 5 5 5 3 3 4 2 7 3 4 3 4 0 3 1 3 5 6 5 8 8 6 4 6 5 5
15 14 14 13 14 13 12 12 11 12 12 10 10 10 9 7 6 8 8 7 7 7 8 8 7 7 7 7 7 7 7 7 6 6 6 6 6 5 5 5 6 6 6 6 5 4 4 4 5 4 3 3 3 4 3 4 4 4 5 4 4 4 4 4 3 3 5 6 2 4 3 2 2 5 4 3 3 3 5 6 5 6 5 4 4
14 14 14 14 15 13 13 12 13 13 13 12 12 11 10 9 7 7 7 6 8 8 7 8 7 7 8 7 7 7 7 7 6 7 8 7 7 7 5 5 6 6 6 6 6 5 5 5 6 5 4 4 4 4 4 3 4 4 4 3 3 4 3 4 4 4 3 4 4 3 3 4 4 3 4 3 3 5 3 4 3 4 5 4 3
15 14 14 15 14 14 14 13 13 14 14 12 13 12 11 10 9 9 8 8 8 7 7 7 7 8 9 9 8 8 8 8 8 8 7 7 7 7 6 5 5 6 6 6 6 6 6 6 6 4 4 5 5 5 4 4 4 4 4 4 4 3 3 4 5 4 4 6 5 4 2 2 3 4 3 4 4 3 3 3 3 4 4 4 2
14 14 14 14 14 14 14 13 14 15 15 14 14 13 12 11 10 9 10 10 8 8 9 8 8 9 9 9 9 9 8 8 9 9 9 7 7 7 6 5 5 5 5 6 6 6 7 7 6 5 5 6 6 5 4 5 4 4 4 4 4 3 3 3 3 4 4 6 5 6 3 4 4 3 2 1 2 4 5 4 4 2 3 5 4
14 14 14 14 13 14 14 14 13 13 14 13 12 12 12 12 11 11 10 10 10 10 9 9 9 9 10 9 9 10 9 8 8 9 8 8 8 7 7 7 6 5 5 6 6 6 6 6 6 6 7 7 7 6 5 5 5 6 6 5 4 3 4 5 4 4 4 5 4 5 6 4 3 6 2 1 1 2 3 5 3 2 2 3 5
13 14 14 14 13 14 13 13 13 13 12 12 12 12 12 12 12 11 10 11 11 11 11 11 10 9 9 9 10 9 8 8 8 8 8 8 8 8 8 8 7 6 6 6 6 6 7 6 7 7 8 8 8 7 6 7 4 5 6 4 4 4 5 5 4 4 5 4 5 7 3 4 4 3 1 3 4 2 1 1 4 4 3 2 3
14 14 13 14 14 13 12 12 11 12 12 12 12 13 13 12 11 11 10 11 10 11 11 11 10 10 9 9 9 8 9 9 8 9 9 9 8 9 9 9 9 8 7 7 6 7 6 7 7 7 8 11 12 11 9 7 5 7 6 4 4 5 5 5 5 5 5 5 6 5 4 6 6 5 6 2 3 5 3 0 3 3 3 3 5
14 14 15 14 13 13 13 12 12 12 12 12 12 12 12 12 11 11 12 11 11 10 11 11 11 11 11 10 9 8 9 8 10 15 13 10 9 8 8 8 9 8 8 8 7 7 8 7 8 12 13 13 13 13 13 12 11 9 8 5 6 5 6 5 6 6 6 6 7 6 6 7 8 4 3 3 3 2 3 3 3 4 3 4 4
14 14 14 13 13 12 12 12 12 13 13 13 12 12 13 11 11 11 12 12 12 11 11 11 11 11 11 11 11 10 9 9 14 15 16 16 11 9 9 8 8 8 8 8 9 9 8 8 7 9 10 10 11 14 13 14 13 13 13 11 8 7 6 6 7 6 5 6 6 4 6 8 8 3 4 5 3 3 3 2 4 2 2 3 5
13 13 13 13 13 13 12 12 12 13 12 13 13 12 12 12 12 12 11 12 11 11 12 12 12 11 11 11 11 11 11 13 15 15 16 17 15 11 9 8 8 8 8 9 9 9 9 8 7 7 7 8 7 8 10 13 13 14 14 13 13 12 10 9 8 6 5 6 6 7 5 7 8 3 4 2 4 3 4 3 4 5 4 3 2
14 13 14 14 14 14 13 13 13 13 13 13 12 12 13 13 13 12 13 12 10 11 13 12 12 12 11 12 12 12 11 14 15 16 16 17 18 14 9 9 9 9 9 9 9 9 8 8 8 7 7 12 10 8 7 8 11 14 14 13 13 13 13 13 11 9 5 5 7 8 8 6 6 7 4 4 3 3 2 3 4 4 5 5 4
14 15 14 14 14 13 13 14 14 14 13 13 13 13 13 13 13 12 11 11 12 12 12 13 12 12 12 12 11 11 12 14 16 17 17 18 18 15 11 10 9 10 10 10 9 9 9 8 8 8 8 7 7 7 6 7 7 6 6 7 8 11 13 14 15 16 11 8 7 10 10 5 9 7 4 4 3 4 4 5 4 4 5 6 3
5 9 12 13 13 13 13 13 14 13 13 13 13 13 13 12 13 12 11 12 12 12 12 13 13 12 12 12 11 11 11 15 16 18 18 18 18 15 11 10 9 9 10 10 10 10 9 9 9 10 9 7 7 8 7 7 6 6 6 7 8 8 7 7 8 8 8 8 10 11 13 8 9 9 4 5 6 6 5 5 5 5 4 0 1
2 1 4 9 11 12 13 13 14 13 13 13 13 13 13 13 13 12 12 11 11 11 11 11 12 12 12 12 12 13 12 16 16 17 18 18 17 11 10 11 11 10 10 10 10 10 10 10 9 10 10 9 11 14 12 8 5 6 7 8 7 7 7 10 11 9 8 8 9 10 11 11 9 7 5 6 5 4 3 1 1 1 2 3 5
3 3 3 3 6 8 10 12 12 13 13 13 14 14 13 13 13 11 12 12 12 12 12 12 11 11 12 12 13 13 12 14 17 18 18 19 13 9 10 10 10 11 11 11 10 11 11 11 10 10 10 10 13 14 14 11 7 8 8 8 8 6 9 8 7 12 13 13 14 16 17 16 11 9 8 8 6 4 3 2 6 4 4 5 4
3 1 3 5 5 6 9 11 12 13 13 14 14 14 13 12 12 11 13 13 13 13 12 11 12 12 13 14 14 13 13 14 17 18 19 19 16 12 10 10 11 11 11 11 10 10 11 16 14 12 12 12 16 16 15 10 8 9 9 8 7 8 11 8 3 5 9 11 13 14 15 15 14 13 13 11 9 5 6 8 5 5 6 6 6
6 6 4 2 2 5 8 10 12 13 14 15 14 14 14 13 13 12 12 12 13 11 11 12 12 11 13 13 15 16 14 14 17 18 20 20 17 11 11 10 11 11 11 11 11 10 10 12 18 16 13 15 18 16 14 11 8 9 9 8 8 10 12 5 5 6 4 4 6 6 8 11 11 9 9 12 10 9 9 10 5 6 7 6 5
7 6 6 5 4 5 7 10 12 13 14 14 13 13 12 11 12 12 12 11 11 11 11 12 13 12 11 12 13 14 14 13 13 19 20 21 22 14 10 11 12 13 12 11 10 10 11 10 12 16 18 18 19 17 13 14 10 9 7 8 9 13 9 4 6 7 6 7 8 7 8 7 6 6 6 6 7 9 10 9 7 7 7 6 6
7 7 7 7 6 6 7 8 12 14 14 13 13 12 12 12 12 12 12 11 11 11 13 12 12 13 12 12 13 13 14 15 14 19 20 21 23 20 12 13 13 12 12 11 11 11 10 10 10 14 17 18 19 17 13 14 14 10 9 9 11 13 7 4 6 9 7 7 7 7 7 6 6 5 6 6 6 6 7 7 7 7 7 7 6
7 7 8 8 7 7 8 8 8 10 12 12 12 12 12 12 11 12 11 11 13 13 12 12 12 12 11 12 13 14 15 19 15 17 20 21 22 25 15 14 15 13 12 11 11 11 11 10 10 14 17 17 18 17 15 14 15 10 11 15 16 13 10 7 5 4 5 6 6 7 7 6 6 6 6 7 6 6 6 6 7 7 7 7 8
7 7 7 7 7 7 8 9 8 6 9 11 13 13 12 12 12 11 12 12 13 13 13 12 12 12 11 11 12 13 13 13 20 15 18 21 22 23 24 18 19 15 13 13 13 13 11 11 12 15 16 17 17 16 15 16 11 11 17 17 15 13 8 5 6 6 6 6 6 8 8 7 6 7 7 7 6 6 6 6 5 6 6 6 5
7 7 5 6 7 9 9 8 8 7 8 9 11 12 11 12 12 11 12 12 12 12 11 11 11 12 12 12 11 12 11 12 13 19 16 21 21 24 24 24 20 15 14 13 12 12 11 11 12 16 16 17 15 14 15 13 12 17 17 15 11 6 3 5 5 7 7 7 7 8 8 7 7 6 6 6 7 7 4 2 3 4 4 5 3
8 7 6 5 5 7 8 9 8 8 8 9 10 11 12 12 11 11 11 12 12 12 12 11 12 12 12 13 12 11 11 11 11 13 20 19 22 23 24 25 24 21 16 14 12 12 14 17 17 15 14 14 15 13 8 10 14 13 14 13 9 4 5 6 7 6 7 9 9 9 8 8 8 8 7 6 2 2 3 3 2 2 3 3 3
10 8 8 7 7 7 8 9 9 9 9 9 10 11 11 11 12 11 11 12 13 13 12 12 12 12 13 12 11 11 10 10 12 11 12 17 17 22 25 24 25 24 22 17 19 20 18 17 16 12 11 11 8 6 8 9 13 14 11 7 5 6 6 7 7 7 9 9 9 10 9 6 5 6 1 2 4 5 4 4 5 3 4 6 5
9 9 9 9 9 8 9 7 6 7 8 9 10 10 10 11 12 12 12 13 13 13 12 12 12 13 13 12 10 10 11 11 12 12 10 10 11 12 14 15 18 18 15 14 13 11 12 11 8 8 6 8 8 7 7 6 6 7 7 7 7 7 7 8 9 10 9 9 9 9 8 7 3 2 4 5 5 5 5 6 6 6 5 4 5
9 9 10 9 9 9 9 10 10 7 7 8 9 10 11 12 12 14 14 14 13 13 13 13 13 13 12 11 11 11 12 12 12 13 12 11 10 9 11 11 11 12 13 13 13 12 10 7 6 3 4 3 3 3 5 5 6 6 7 7 7 7 8 9 8 6 7 7 7 6 5 3 4 6 5 6 6 5 5 6 6 6 5 6 4
9 9 8 8 8 10 9 7 7 7 7 7 9 10 11 12 13 14 15 13 14 15 14 15 15 14 13 13 13 13 13 15 16 12 11 14 14 12 11 12 11 11 15 17 12 9 7 6 5 5 5 6 6 6 6 6 6 7 7 7 7 6 6 6 8 8 8 8 9 9 8 7 7 6 6 5 6 6 5 6 5 7 6 5 7
8 7 7 7 8 9 8 8 9 8 7 7 8 9 13 16 15 13 12 17 21 21 18 16 16 14 14 14 14 16 16 16 17 19 21 21 21 22 20 19 18 16 16 19 13 9 9 9 9 9 7 7 8 8 8 8 8 8 8 8 7 7 7 7 8 8 8 9 9 8 8 7 8 7 7 8 6 5 7 9 7 7 8 8 7
8 7 7 6 8 8 9 9 9 8 7 7 7 8 8 10 15 19 19 17 20 22 21 22 21 20 17 13 15 22 21 19 19 19 20 20 21 22 21 20 20 21 16 10 6 9 8 9 9 8 8 8 9 9 8 8 9 9 8 7 7 8 8 8 9 9 9 10 9 8 8 8 8 8 8 8 8 7 6 6 6 8 8 8 8
9 9 9 9 9 9 8 9 9 9 9 7 7 7 8 8 9 13 16 15 16 20 21 22 22 20 21 19 14 12 16 18 16 16 18 19 20 21 21 21 20 19 17 19 11 9 9 9 9 8 8 9 10 8 8 9 9 8 7 7 8 8 9 10 11 10 10 9 8 8 9 8 8 8 9 8 7 7 8 8 7 8 8 7 8
10 10 9 10 9 10 10 9 8 8 9 8 7 6 7 8 10 10 10 7 7 10 15 19 20 19 19 19 20 17 15 15 17 16 17 19 20 20 21 20 19 17 15 9 11 9 9 9 9 8 9 10 10 9 8 8 8 9 10 11 11 10 10 9 6 6 7 7 7 8 8 8 8 8 8 7 8 8 8 8 8 8 8 8 7
11 9 9 10 10 8 8 9 8 8 8 8 8 7 8 9 10 10 9 8 8 8 8 12 15 16 16 16 17 18 16 15 18 19 18 18 19 18 17 11 9 15 18 14 12 11 10 9 9 9 9 9 8 7 8 9 11 11 10 10 9 6 6 6 6 8 7 7 8 8 8 8 8 7 7 7 7 7 8 8 8 8 7 8 9
10 13 19 14 8 9 9 8 9 10 9 8 8 7 8 8 9 9 9 10 11 12 12 11 12 15 17 16 18 20 20 18 17 19 20 18 18 14 11 7 5 1 3 6 8 9 9 9 9 9 9 8 8 9 11 13 11 10 11 10 8 7 7 8 9 8 8 8 8 8 7 7 7 8 8 8 7 7 8 8 8 9 10 8 7
10 9 9 11 9 9 9 9 8 9 10 9 8 8 7 5 5 6 7 8 10 11 11 11 8 7 12 15 15 14 16 16 16 17 18 19 14 17 9 9 9 9 10 10 10 11 10 9 8 8 7 8 9 11 12 12 12 11 10 10 9 8 9 8 8 8 9 8 8 8 7 7 8 8 6 6 8 9 9 10 9 9 8 8 8
9 8 8 8 9 8 9 9 8 9 9 10 9 8 5 3 3 2 3 3 4 4 6 2 1 1 3 7 13 15 14 12 11 9 7 5 13 14 12 12 12 10 10 10 10 9 9 8 7 8 10 11 11 13 12 12 11 10 9 9 8 9 9 9 9 8 8 8 8 8 8 7 6 7 8 8 8 9 8 8 8 9 9 9 8
9 8 8 9 9 9 9 9 9 11 9 9 8 7 7 6 7 8 9 9 9 10 11 11 10 11 12 12 9 7 7 3 5 4 4 6 6 8 10 9 10 10 11 10 10 10 10 8 9 10 11 12 13 13 12 12 11 8 7 7 8 9 10 9 10 8 8 8 8 7 7 8 9 9 9 9 9 8 8 8 8 8 8 9 8
8 12 16 17 12 9 9 10 9 8 8 8 8 8 9 9 7 6 6 6 7 8 9 9 9 10 11 12 10 8 7 4 7 11 10 8 7 8 9 10 10 10 10 9 8 9 9 9 10 11 11 11 12 12 12 12 9 8 7 8 9 7 8 8 8 8 8 9 9 8 9 9 8 9 9 8 8 9 9 9 10 9 9 8 8
10 10 10 16 10 10 9 9 9 9 8 9 8 9 10 10 10 10 10 10 11 11 11 12 11 12 12 10 8 9 11 12 12 12 10 7 9 10 9 10 11 11 10 8 8 9 9 9 11 12 12 12 12 12 11 10 7 6 7 8 8 9 10 9 9 9 9 9 8 8 8 8 8 8 8 8 8 9 10 10 11 10 10 9 9
9 10 11 10 11 10 9 9 8 9 8 8 9 10 11 11 10 9 9 10 11 12 13 12 13 12 11 12 13 16 13 13 11 9 8 9 10 9 10 11 11 11 10 9 8 8 8 10 11 12 12 12 13 12 11 8 9 7 5 7 8 8 8 8 9 8 8 7 8 8 8 9 8 9 11 11 9 9 9 8 7 8 7 7 8
9 9 9 8 9 8 8 9 9 11 10 8 8 9 10 11 10 9 10 10 11 11 11 11 11 10 10 15 15 17 12 9 8 9 10 12 11 11 11 10 10 9 8 7 7 7 8 9 11 12 13 14 14 13 9 8 9 11 11 9 9 9 9 9 9 9 8 8 8 9 9 9 9 10 11 10 10 8 7 6 7 6 6 7 7
10 9 9 9 8 8 8 9 9 9 9 9 8 9 11 12 11 10 11 11 11 10 10 11 10 7 7 11 14 15 10 8 8 8 9 10 9 8 6 4 1 1 2 2 1 4 8 9 9 10 14 16 16 10 9 11 14 12 8 9 10 10 9 9 8 8 8 8 8 9 9 9 9 8 8 8 7 7 7 8 8 8 8 7 6
8 9 7 8 7 8 7 7 8 8 8 10 10 8 8 10 11 11 11 11 11 10 10 10 8 5 5 3 6 8 8 7 7 7 7 6 5 5 4 4 4 4 5 4 4 5 8 9 8 6 4 3 1 2 8 10 9 9 9 10 9 9 8 8 9 10 9 9 9 9 9 8 8 7 8 8 8 8 7 6 7 6 6 5 5
7 8 8 7 8 7 7 7 7 7 9 9 8 8 8 9 9 10 10 11 11 10 9 7 5 6 6 7 8 9 7 5 5 5 6 6 7 7 6 6 6 6 6 6 5 6 7 8 9 9 8 6 5 5 5 3 1 4 5 5 7 8 8 8 8 7 8 9 9 8 8 8 8 8 8 7 7 8 8 7 7 6 6 5 5
7 8 8 8 8 8 8 8 8 7 8 8 9 10 10 10 11 10 10 10 10 9 7 6 6 7 7 8 6 5 6 6 6 6 7 8 7 6 5 6 7 7 6 6 6 7 8 8 9 9 9 7 6 5 5 5 5 5 4 4 4 5 5 6 7 8 8 8 8 8 7 7 7 7 8 8 6 7 6 5 5 6 6 6 5
7 7 8 8 8 9 9 9 8 8 9 9 10 11 11 12 11 12 12 5 4 8 8 7 6 6 6 6 6 7 8 8 9 8 7 7 7 7 6 6 6 7 8 7 7 7 9 9 9 10 9 9 8 8 7 6 5 5 5 3 2 3 3 4 5 5 5 5 6 8 8 7 7 8 8 8 7 7 7 6 7 7 6 6 7
7 8 8 8 8 8 9 9 10 12 9 9 9 11 10 11 11 12 11 12 12 9 5 6 6 6 8 8 8 9 8 7 8 8 8 7 7 7 7 8 8 8 9 9 8 8 9 9 9 9 10 9 8 8 7 7 7 7 5 2 1 3 7 8 7 7 6 6 6 7 8 8 7 7 7 8 8 8 8 7 6 6 7 7 6
7 8 8 8 8 8 8 10 10 9 10 9 8 12 11 11 12 12 11 12 11 11 10 8 6 6 8 9 9 9 9 9 10 9 9 8 8 7 8 9 10 9 10 10 9 9 10 10 10 10 10 10 9 7 7 7 8 7 7 5 8 14 14 13 9 8 9 7 7 7 8 8 8 8 7 8 7 6 7 6 6 6 6 6 6
7 7 8 8 8 8 8 7 8 9 9 9 10 9 10 11 12 12 12 12 11 11 11 10 9 7 6 7 9 9 10 11 10 10 10 8 8 7 7 9 11 11 10 8 8 9 10 10 11 11 10 10 10 9 8 7 7 8 8 10 16 18 16 17 16 14 10 6 8 7 8 8 8 8 7 8 8 9 8 7 6 5 6 6 6
7 8 8 9 8 8 9 10 10 10 10 9 10 10 10 10 10 10 11 12 12 11 11 11 10 10 8 6 8 9 10 10 10 10 10 10 9 8 7 8 9 10 11 11 11 11 11 11 11 10 11 11 10 10 9 9 8 8 13 18 19 18 17 15 13 15 16 11 8 9 9 9 9 9 8 7 8 8 8 8 7 6 5 5 5
Wind_Direction
192 196 192 197 194 195 197 196 200 198 201 203 206 203 190 189 195 201 183 202 195 196 201 204 201 202 198 198 202 203 206 210 206 203 203 211 208 200 188 189 202 223 224 230 222 203 212 230 246 244 201 206 242 239 230 231 214 201 163 164 172 171 157 158 209 271 293 244 251 263 298 315 311 248 314 311 322 328 333 320 325 329 321 328 334
194 194 195 197 198 196 197 196 196 195 199 201 208 207 199 192 193 183 194 205 192 200 203 205 204 202 204 206 204 205 206 207 204 195 205 210 211 198 193 190 203 217 216 235 230 218 209 224 250 253 218 213 230 228 220 213 201 205 199 186 196 199 204 162 216 237 281 311 300 290 291 257 294 276 289 317 318 334 331 329 337 348 332 336 339
193 192 193 196 201 199 194 195 194 197 200 202 207 209 208 199 181 191 201 201 199 202 203 204 203 201 208 210 207 208 208 208 203 199 208 209 208 207 197 192 199 206 210 223 229 226 224 227 243 245 240 231 239 238 220 211 193 199 214 197 204 211 190 199 174 236 265 282 264 299 279 314 248 293 308 298 298 300 308 318 335 329 324 331 325
193 193 194 198 198 196 197 195 194 197 202 204 206 209 208 207 193 196 201 200 202 208 203 201 197 198 206 211 210 210 209 209 207 207 209 208 214 214 206 203 205 209 209 212 218 219 225 232 239 236 235 233 244 241 232 218 203 212 219 215 206 222 203 191 208 218 233 258 294 256 289 312 292 282 281 292 295 308 298 303 318 314 312 320 310
192 194 195 197 197 199 199 196 196 198 203 205 209 207 207 207 205 205 200 205 207 205 211 204 201 198 205 209 210 211 212 208 210 214 214 211 213 215 215 212 214 216 217 216 213 213 221 227 234 226 220 234 248 242 232 228 224 214 225 227 214 226 218 200 215 207 232 254 277 276 276 280 263 290 283 300 328 323 324 327 313 306 306 289 286
193 193 195 197 199 200 200 199 200 201 202 205 208 208 207 206 205 206 205 210 209 208 209 209 207 208 211 211 210 212 211 210 212 215 215 213 214 217 219 219 221 221 224 225 222 214 220 225 228 222 222 225 239 240 234 235 230 227 232 235 228 216 232 241 221 217 221 248 251 292 299 272 310 284 277 317 319 322 323 320 329 355 345 337 328
191 193 195 198 200 201 201 202 202 203 204 206 207 208 209 208 205 206 203 207 209 211 211 212 215 213 216 214 215 213 210 208 211 214 215 213 212 213 218 220 223 223 225 226 228 226 226 227 224 217 223 226 232 234 231 235 229 237 229 231 221 214 239 249 234 232 233 253 268 241 271 273 233 284 311 360 236 222 267 318 329 302 322 343 318
192 194 194 199 201 202 202 202 204 205 206 205 207 209 209 210 210 208 203 206 209 211 213 212 216 216 218 217 219 216 212 209 209 211 212 211 211 214 214 218 221 225 229 228 227 230 230 231 230 224 223 229 228 234 218 231 228 242 238 223 219 213 238 247 250 241 248 247 250 269 244 277 297 271 316 1 336 332 168 204 290 296 317 307 263
192 194 197 200 202 201 201 202 204 205 207 207 209 210 210 211 210 209 208 209 210 212 214 214 214 217 221 220 220 216 214 213 208 206 206 209 210 214 213 215 218 224 230 231 228 230 234 233 234 232 229 231 228 229 223 216 211 230 242 209 218 216 233 238 238 242 248 247 268 259 274 286 274 294 315 299 265 270 283 66 261 259 264 284 283
192 196 199 200 200 199 199 200 200 202 204 206 209 210 212 212 211 212 213 212 213 211 213 215 215 215 217 220 219 219 219 216 212 205 201 203 206 213 215 219 220 222 227 231 233 229 231 233 236 235 234 236 236 235 234 229 223 219 232 204 215 215 226 233 236 233 238 250 253 262 277 273 275 264 261 249 244 285 318 301 276 287 326 300 283
194 198 201 200 200 200 199 202 201 203 204 206 207 208 210 210 212 214 214 214 215 213 212 215 216 215 215 216 218 221 222 220 211 202 203 204 202 207 212 218 219 223 226 227 233 232 234 234 238 244 241 234 238 237 236 234 233 234 239 232 214 207 222 231 240 231 228 240 256 254 248 268 272 252 243 264 239 239 244 235 249 301 298 301 303
195 197 199 200 199 199 200 201 204 206 205 208 207 206 207 208 211 212 213 215 216 214 216 216 216 215 216 216 218 220 224 222 210 204 201 203 204 206 210 216 216 220 225 228 232 233 235 235 235 235 236 237 233 236 237 238 237 237 240 244 244 239 228 219 236 245 222 237 253 248 244 252 268 259 256 230 245 227 243 236 238 249 262 243 247
192 196 199 200 200 198 197 200 202 204 207 207 208 207 207 209 210 210 213 214 213 215 218 217 217 216 216 216 218 220 225 220 210 205 203 202 204 207 213 211 214 219 221 226 232 234 234 235 239 233 236 234 236 234 231 239 235 234 240 248 254 249 249 251 248 243 234 221 238 258 236 242 256 253 206 211 171 205 206 229 251 246 240 249 244
192 196 198 201 200 197 198 200 201 205 205 206 207 208 208 210 210 210 212 211 214 217 217 219 219 217 216 217 219 222 222 220 207 206 205 203 203 201 215 212 214 219 221 223 228 233 233 232 234 240 235 235 233 229 227 230 236 234 236 237 242 251 247 240 242 246 242 238 236 248 254 197 242 246 218 164 170 236 225 247 237 259 250 242 227
194 202 202 202 199 198 199 200 203 205 205 206 207 209 210 211 210 210 210 212 213 215 216 218 219 219 218 217 219 223 226 217 205 205 205 203 203 198 213 215 217 221 222 223 226 228 230 229 231 237 241 233 227 221 224 227 226 232 237 241 240 245 245 245 237 232 225 222 234 241 255 241 234 244 217 187 209 221 209 224 223 230 250 359 36
150 160 214 211 206 201 199 200 202 203 204 205 207 209 210 209 210 209 210 213 215 215 218 218 219 220 219 218 219 225 227 214 204 204 204 204 198 197 209 215 219 222 223 223 224 225 226 226 227 233 239 238 234 225 224 221 218 230 237 245 251 251 250 239 236 233 226 220 224 236 247 249 240 239 211 200 215 225 227 259 313 227 230 276 249
194 184 188 201 215 211 207 205 204 204 205 206 208 209 209 210 212 207 211 213 213 214 216 215 217 218 218 217 219 225 228 215 203 202 202 200 186 201 205 213 220 223 227 223 223 224 224 224 223 230 235 238 237 225 222 215 223 229 236 244 250 258 261 258 230 233 237 235 233 237 246 254 252 239 224 212 209 181 151 209 247 200 213 256 263
353 217 213 211 213 213 208 206 207 207 207 209 209 209 209 211 212 205 209 211 214 214 212 216 215 215 216 218 216 221 227 218 202 202 200 192 187 197 204 208 220 223 229 228 225 226 225 221 220 225 232 238 239 230 219 198 216 229 235 240 247 253 260 257 246 241 231 237 243 246 249 255 253 250 251 238 216 186 177 227 220 163 218 217 245
356 351 339 315 258 242 227 216 212 210 211 212 209 208 208 208 209 206 211 212 217 214 213 216 217 215 216 218 217 219 227 223 203 199 197 191 190 201 201 206 218 224 224 230 228 229 231 229 227 226 227 235 239 234 217 190 213 223 227 233 242 249 253 245 225 246 240 244 255 249 259 252 247 242 244 237 213 206 213 229 209 186 221 216 212
328 311 307 300 285 264 250 228 216 214 214 214 211 210 209 209 209 208 210 211 214 212 214 215 217 219 214 215 217 218 224 227 208 199 195 192 191 196 202 203 217 222 222 224 230 231 232 234 230 228 229 234 239 236 219 192 208 223 218 224 235 248 251 226 223 221 231 222 239 232 242 247 243 237 240 235 215 208 217 224 220 207 216 218 200
324 316 298 292 285 276 268 245 226 218 214 212 210 210 207 208 208 207 210 211 213 214 214 213 217 220 216 216 217 216 219 223 219 197 198 192 194 194 203 208 214 217 219 222 226 230 231 229 232 223 221 229 237 238 224 203 210 220 218 222 226 239 248 230 236 216 222 230 236 239 242 246 241 236 232 228 223 217 220 223 219 212 206 210 209
315 310 308 299 288 276 271 264 239 225 216 210 208 211 210 206 206 207 209 210 213 216 214 214 217 219 221 219 219 220 217 215 221 205 196 193 194 195 203 211 209 212 218 223 225 229 230 227 229 226 218 221 230 231 224 213 211 215 229 227 234 238 246 241 248 243 234 233 235 238 240 237 238 233 232 230 230 225 219 216 213 214 216 213 204
306 301 305 311 302 284 270 270 264 237 220 210 208 211 205 203 205 205 206 210 214 216 215 214 216 219 221 221 222 222 220 219 214 212 196 194 195 198 205 209 208 209 214 221 222 226 226 227 231 228 217 218 222 222 219 216 206 218 229 233 232 236 241 252 245 243 237 232 229 235 234 228 230 235 233 237 235 224 222 218 203 205 218 224 222
310 311 319 318 314 307 297 279 268 251 227 212 207 209 206 204 203 201 204 207 211 215 217 215 216 220 220 222 222 223 221 223 213 212 202 195 197 198 205 213 207 209 213 222 222 223 224 225 227 222 216 216 215 215 215 202 205 217 224 231 235 238 224 236 242 237 235 233 232 235 233 223 221 230 229 223 227 219 206 193 196 196 194 196 198
310 311 310 297 288 288 288 286 271 256 239 217 209 207 206 201 205 205 203 207 211 214 216 212 215 218 220 221 221 220 220 220 223 209 207 196 198 200 205 209 215 211 213 224 223 222 222 223 224 215 212 210 212 212 208 210 219 225 220 218 214 197 206 214 225 225 230 233 233 235 234 221 215 218 218 216 192 86 108 81 90 109 128 126 127
316 314 311 303 291 279 273 268 260 248 238 222 216 209 205 201 205 204 205 208 209 213 213 212 216 217 220 222 219 218 216 220 222 215 204 204 202 204 204 207 212 213 215 220 217 219 220 221 222 214 207 212 206 192 208 215 215 220 223 208 202 204 204 210 219 220 231 234 233 235 236 222 217 222 191 111 146 177 144 134 127 140 144 137 113
315 314 312 308 300 287 273 266 261 246 230 224 215 210 205 203 205 206 205 209 212 214 213 212 217 217 221 221 218 216 218 221 221 219 204 199 203 204 207 217 220 220 223 235 238 233 231 228 213 198 199 197 197 204 213 212 185 191 196 201 203 203 205 205 211 217 226 232 236 238 236 228 202 129 143 167 178 185 177 163 165 172 156 152 137
317 312 307 303 296 289 283 279 280 264 239 222 215 211 207 206 206 207 206 208 208 212 211 213 216 216 220 216 215 216 221 223 221 218 211 202 203 191 195 201 200 201 212 221 223 226 226 216 189 160 139 121 161 182 208 201 204 193 197 197 204 206 212 220 229 235 239 235 242 240 241 194 189 205 185 178 189 182 177 169 167 171 172 146 128
309 297 295 295 290 281 271 277 280 278 258 231 222 213 206 207 212 215 215 208 206 208 209 213 213 216 215 211 208 217 220 222 224 212 209 198 196 195 193 201 200 203 211 208 209 220 222 214 201 177 176 189 189 203 201 199 211 211 207 201 202 196 196 195 212 220 222 223 229 226 227 207 213 201 191 184 199 190 168 173 181 166 177 182 172
311 304 295 292 289 286 289 292 286 280 266 248 232 230 225 215 208 214 220 214 213 212 206 210 212 211 215 214 207 211 217 220 216 197 202 200 197 195 200 197 195 201 205 199 196 202 198 207 210 208 197 190 204 206 204 203 207 211 217 211 203 197 199 207 214 222 217 218 222 221 221 211 215 197 192 204 201 179 181 177 182 174 166 184 177
318 318 312 305 296 291 288 283 284 286 278 259 240 231 230 239 234 226 223 216 211 215 213 220 220 214 210 216 217 220 224 222 214 201 201 200 196 200 203 201 199 205 193 141 171 201 197 200 208 204 200 200 209 211 202 202 211 211 214 206 203 204 203 210 214 214 216 218 217 216 215 212 214 202 202 203 195 182 176 195 181 177 181 176 180
320 322 320 311 303 297 286 284 286 290 289 270 245 232 230 227 232 238 237 239 224 212 218 222 222 218 217 216 216 224 227 226 216 202 202 199 199 202 203 202 202 198 186 169 188 194 197 202 203 198 188 200 212 205 200 206 206 204 201 199 206 198 201 213 214 209 217 215 212 213 213 212 212 208 207 199 182 176 180 183 188 187 188 182 188
319 315 312 310 308 309 305 293 283 286 289 287 267 244 229 222 224 233 244 250 272 265 243 233 227 226 224 225 221 218 213 210 217 211 205 204 202 204 204 201 199 186 143 167 203 196 191 199 204 194 188 205 208 203 200 190 190 199 201 204 207 203 204 219 213 235 236 233 219 217 212 213 211 209 201 181 174 181 185 189 191 194 184 181 190
311 309 312 315 315 316 320 315 302 289 283 281 282 263 240 227 227 228 224 225 255 255 245 239 242 245 245 234 227 232 234 217 210 211 209 209 206 205 197 195 183 170 178 192 189 204 193 194 197 194 197 206 198 173 178 195 201 204 207 213 212 171 180 179 188 216 224 232 231 232 216 213 201 196 193 183 185 184 184 193 187 183 185 194 195
312 316 324 328 326 322 316 315 314 308 297 287 280 275 262 250 238 231 222 219 220 224 231 236 229 216 225 231 230 228 227 224 214 209 211 210 208 192 143 125 141 134 238 236 203 199 199 194 192 189 194 191 172 177 195 208 205 202 209 211 204 194 197 198 211 210 216 222 225 227 219 206 195 196 185 179 179 192 195 193 194 193 193 195 189
316 313 317 326 325 321 315 312 307 300 302 294 285 271 271 282 281 266 259 239 221 222 234 231 230 217 231 255 261 249 243 237 229 219 213 210 188 141 171 203 209 206 199 200 202 203 199 199 187 176 165 164 175 190 207 211 210 205 206 208 204 198 204 207 209 213 213 213 216 214 206 202 199 193 185 182 189 194 195 196 193 194 194 190 188
315 314 318 320 319 310 308 303 298 300 295 291 280 274 255 196 157 146 169 176 196 212 218 217 29 295 219 236 240 248 241 241 255 279 285 243 182 181 207 202 211 206 201 200 196 199 197 197 166 151 164 174 187 199 208 215 217 206 202 204 198 203 210 210 209 208 210 212 213 207 205 200 184 182 179 186 196 204 199 187 191 187 191 192 184
313 313 315 316 313 312 311 305 304 301 294 282 266 241 229 221 211 201 204 210 208 204 207 205 197 206 204 220 197 220 233 165 138 137 120 116 152 223 229 229 216 211 209 203 193 190 195 178 163 167 172 182 195 203 204 215 214 202 191 200 208 217 213 215 220 218 215 214 210 199 186 187 186 183 182 196 196 191 190 187 184 186 195 195 191
315 324 325 325 322 318 309 309 308 308 299 289 261 240 233 236 238 233 223 231 235 237 231 226 219 223 221 216 191 163 139 171 199 220 209 204 190 208 221 227 226 223 220 208 187 182 180 162 165 171 178 189 204 201 203 211 206 199 195 203 212 206 207 214 215 214 215 214 208 196 194 195 189 186 187 192 192 188 189 188 185 186 188 192 200
327 326 325 331 328 324 318 315 315 312 310 301 273 243 245 240 237 231 224 215 217 217 218 217 217 221 226 218 199 160 181 206 216 220 210 197 204 213 218 225 229 228 223 210 189 181 170 159 165 171 179 195 204 205 208 201 178 183 187 197 205 208 206 202 206 209 213 211 204 197 192 194 189 173 184 216 207 193 188 187 188 188 187 187 193
323 325 328 332 325 325 323 321 317 315 310 309 302 277 252 246 242 244 241 237 230 227 223 221 222 224 221 221 201 188 200 206 212 201 171 195 214 217 217 221 223 228 226 216 196 177 161 156 165 170 178 190 205 208 204 180 182 193 183 188 198 206 202 204 207 212 213 202 199 196 198 192 186 176 189 205 211 199 192 177 174 182 182 183 184
324 320 329 327 331 332 330 331 326 321 316 308 302 292 279 261 248 238 239 237 239 240 242 237 235 224 208 194 194 194 204 213 208 197 200 215 215 216 216 222 223 228 227 215 190 168 155 154 163 167 175 189 203 211 184 156 170 207 207 187 192 198 197 200 203 209 206 202 200 199 197 193 190 195 188 179 191 176 160 159 176 186 182 183 181
327 330 330 333 336 336 338 335 328 323 319 315 306 302 295 281 260 245 237 238 239 238 240 240 238 216 206 193 187 184 201 205 214 205 203 216 218 217 209 187 157 32 45 43 67 136 139 142 150 164 172 183 202 197 168 173 193 201 191 194 200 195 193 195 196 203 199 195 198 197 195 191 187 180 170 161 150 145 163 170 176 185 187 176 175
331 334 330 340 338 341 342 337 334 329 316 318 319 314 303 290 272 251 241 240 238 236 237 237 237 222 215 167 166 165 204 208 208 194 181 165 158 142 127 104 100 88 75 73 67 93 115 120 118 110 101 146 107 224 205 205 204 204 203 195 195 188 186 191 200 200 193 190 187 185 184 178 169 157 152 155 159 159 163 167 165 153 145 166 166
330 335 339 345 347 346 346 340 331 333 335 331 338 340 336 322 284 256 245 241 241 241 232 218 196 194 187 170 174 189 189 175 146 125 124 124 122 108 95 90 92 89 81 74 70 89 98 104 108 103 90 59 47 34 19 6 319 257 251 199 175 177 184 190 190 183 178 176 172 170 164 156 155 154 153 154 156 159 159 156 144 142 142 140 145
348 348 350 358 353 355 354 347 342 345 346 343 352 359 357 348 336 300 248 236 243 236 220 196 187 182 178 173 164 145 129 119 110 107 104 104 96 82 77 89 84 80 75 75 75 80 85 92 98 99 98 92 82 62 46 26 16 14 20 38 84 112 129 146 154 160 167 160 159 154 148 138 135 139 137 139 139 143 142 134 129 135 142 145 139
354 358 0 3 359 2 3 356 349 354 359 3 6 11 12 6 358 353 338 326 190 191 198 190 163 150 136 130 124 116 111 104 102 95 93 92 88 91 92 86 84 82 78 77 72 76 81 83 85 92 97 99 98 91 83 74 71 56 37 27 37 98 112 104 99 112 120 134 138 139 137 134 127 123 126 128 127 126 125 133 139 138 136 137 138
9 8 7 7 5 7 7 6 3 358 355 7 19 22 21 17 14 8 6 2 2 1 21 53 68 81 89 84 85 85 84 85 91 95 91 84 86 89 91 89 85 87 87 80 73 73 75 78 79 80 80 77 75 79 75 69 66 69 59 10 339 95 98 94 87 88 97 110 123 127 129 127 125 125 128 129 128 132 128 132 131 130 132 133 132
20 16 15 15 17 10 12 14 8 2 355 351 9 35 32 29 21 19 14 11 9 15 12 9 39 82 96 98 98 97 93 91 87 82 78 78 83 86 90 91 91 88 84 79 75 71 71 73 73 71 71 73 70 63 61 54 48 58 76 69 55 61 69 79 87 87 89 90 93 96 96 100 106 107 106 106 106 105 107 108 115 118 111 105 108
29 22 24 23 20 17 14 18 15 6 1 5 10 22 36 41 35 27 20 17 19 16 17 13 3 10 59 88 95 99 98 95 90 89 83 75 66 62 73 90 92 87 82 80 78 73 71 67 69 67 65 62 59 59 57 55 60 65 64 66 64 62 61 61 59 65 75 81 84 92 98 99 98 99 99 103 105 103 98 96 94 94 100 101 95
33 31 31 29 25 20 22 26 27 18 8 11 17 24 30 37 44 43 36 29 26 22 21 22 21 6 6 38 77 92 91 91 90 88 89 88 84 75 59 62 73 81 85 82 80 76 71 68 63 63 60 58 57 57 53 48 40 50 67 70 69 69 66 66 65 60 60 61 66 71 78 84 90 87 84 84 88 90 96 96 91 88 85 88 93